STARLINK-36316, 67705

Orbit data source: Space-Track

STARLINK-36316, 67705 is a payload satellite owned by SpaceX/Seattle (US) in SSO that was launched on Sat, 07 Feb 2026 UTC via an FALCON 9 launch vehicle from the Air Force Western Test Range (AFWTR). Payload-class satellites include a variety of spacecraft equipped with specific instruments for various scientific and technological missions. These include communications satellites like Starlink; space stations such as the ISS; scientific satellites like the Hubble; Earth observation satellites from companies like Planet Labs, Umbra, and HawkEye 360; GPS; miniature CubeSats for education and research; and military/defense satellites.

Not visible in the next 10 days
Identifier
67705, 2026-025N
Orbit
SSO
Country
Flag of USUS
Related business
Manufacturer
SpaceX/Seattle
Mission
Operational spacecraft
Bus & Motor
STARLINK V2MO, Unknown motor
Mass
575 kg wet, ~530 kg dry
Launch date (UTC)
2026-02-07 (1 month ago)
Launch vehicle
FALCON 9
Launch site
Air Force Western Test Range (AFWTR)
Object type
Payload
Rocket body
Debris
Shape & HBR
Unknown
Radar Cross Section
RCS unknown

Expand to show TLE details & history
Last TLE update: 12 hours ago

TLE from 12 hours ago
0 STARLINK-36316
1 67705U 26025N   26071.81784265  .00113462  00000-0  75086-3 0  9993
2 67705  97.2845 183.5691 0001555  80.1797 279.9644 15.75209491  6430
Epoch: 2026-03-12T19:37Z
TLE epoch observation values (Epoch: 2026-03-12T19:37:41.604Z)
Latitude
-0.00003°
Longitude
78.68347°
Altitude
347.023 km
Speed
7.701 km/s
True Right ascension
12h 14m 16s
True Declination
0° 00' 00"
Sunlit
Object was in full shadow at epoch
Visualization orbit readout
Latitude
Unknown
Longitude
Unknown
Altitude
Unknown
Speed
Unknown
Apparent Right ascension
Unknown
Apparent Declination
Unknown
Sunlit
N/A
Visualization observer readout
Local Sidereal Time
12:01:28
Azimuth
Unknown
Elevation
Unknown
Doppler factor
Unknown
Orbital elements
Apogee altitude
341.967 km
Perigee altitude
339.878 km
Semi-major axis
6,719.059 km
Eccentricity
0.00016
Inclination
97.2845°
RAAN
183.5691°
Arg. of periapsis
80.1797°
True anomaly
279.94685°
Mean anomaly
279.9644°
Eccentric anomaly
279.95562°
Mean motion
3.94076 °/min
Orbital period
91.35 mins
BSTAR
0.00075086
Loading maneuver chart data...
Computing Atmospheric mass density...
Loading historical data...
Loading historical data...
Loading historical data...
Loading historical data...
Loading historical data...
Loading historical data...
Loading historical data...

Documentation

Showing up to 5 results
|